Date,TemperatureHighF,TemperatureAvgF,TemperatureLowF,DewpointHighF,DewpointAvgF,DewpointLowF,HumidityHigh,HumidityAvg,HumidityLow,PressureMaxIn,PressureMinIn,WindSpeedMaxMPH,WindSpeedAvgMPH,GustSpeedMaxMPH,PrecipitationSumIn
2013-3-1,70,66,64,61,58,55,85,73,64,0.00,40.00,13,9,31,0.01
2013-3-2,75,67,63,59,57,53,81,69,52,0.00,40.00,18,8,37,0.01
2013-3-3,74,66,61,57,54,49,77,65,51,0.00,40.00,12,7,30,0.01
2013-3-4,72,66,62,58,55,52,77,69,59,0.00,40.00,8,6,28,0.00
2013-3-5,74,67,59,60,56,52,84,69,50,0.00,40.00,11,6,28,0.00
2013-3-6,76,67,60,62,61,59,98,81,58,0.00,40.00,11,6,25,0.00
2013-3-7,77,67,60,64,61,57,100,83,54,0.00,40.00,7,4,14,0.00
2013-3-8,80,66,57,66,59,50,100,83,36,0.00,40.00,8,4,21,0.00
2013-3-9,79,70,63,67,64,62,100,86,58,0.00,40.00,11,6,32,0.19
2013-3-10,68,64,60,68,64,60,100,99,93,0.00,40.00,5,3,14,1.17
2013-3-11,79,66,56,66,62,56,100,88,54,0.00,40.00,9,4,17,0.01
2013-3-12,78,66,58,66,59,52,100,82,48,0.00,40.00,7,4,18,0.00
2013-3-13,73,64,56,63,59,56,100,84,58,0.00,40.00,7,4,17,0.00
2013-3-14,77,65,59,62,60,56,100,84,55,0.00,40.00,5,3,11,0.00
2013-3-15,76,64,56,64,59,54,100,86,52,0.00,40.00,7,4,19,0.07
2013-3-16,72,64,59,62,56,52,100,79,54,0.00,40.00,11,6,25,0.09
2013-3-17,75,63,56,58,56,52,100,79,45,0.00,40.00,6,4,17,0.00
2013-3-18,72,62,53,60,57,53,100,85,58,0.00,40.00,5,3,11,0.01
2013-3-19,78,67,58,64,60,56,100,80,53,0.00,40.00,8,4,25,0.01
2013-3-20,81,68,59,67,62,58,100,82,51,0.00,40.00,9,4,21,0.00
2013-3-21,80,70,59,68,64,59,100,85,59,0.00,40.00,8,5,23,0.00
2013-3-22,75,69,65,70,67,65,100,95,73,0.00,40.00,6,3,18,0.20
2013-3-23,74,67,62,66,64,62,100,90,71,0.00,40.00,10,6,24,0.17
2013-3-24,69,66,61,68,65,61,100,97,90,0.00,40.00,9,4,19,0.22
2013-3-25,78,69,61,70,66,61,100,92,73,0.00,40.00,7,4,15,0.12
2013-3-26,79,68,61,70,65,61,100,90,60,0.00,40.00,7,3,13,0.14
2013-3-27,69,65,61,69,65,61,100,99,97,0.00,40.00,7,3,20,0.96
2013-3-28,76,70,64,65,64,61,100,80,65,0.00,40.00,13,8,27,0.04
2013-3-29,74,67,62,67,64,61,100,91,74,0.00,40.00,12,7,26,0.38
2013-3-30,77,67,60,67,62,58,100,85,58,0.00,40.00,8,5,21,0.01
2013-3-31,71,63,57,58,53,50,92,69,50,0.00,40.00,11,6,25,0.00